Time,TemperatureF,DewpointF,PressureIn,WindDirection,WindDirectionDegrees,WindSpeedMPH,WindSpeedGustMPH,Humidity,HourlyPrecipIn,Conditions,Clouds,dailyrainin,SoftwareType,DateUTC
2013-05-27 00:01:00,54.2,48.8,29.98,South,181,1.0,3.0,82,0.00,RA,,0.00,WeatherDisplay:10.37,2013-05-27 07:01:00,
2013-05-27 00:11:00,54.0,49.0,29.98,ESE,123,0.0,1.0,83,0.00,OVC,,0.00,WeatherDisplay:10.37,2013-05-27 07:11:00,
2013-05-27 00:16:00,54.0,49.3,29.98,SE,131,0.0,1.0,84,0.00,OVC,,0.00,WeatherDisplay:10.37,2013-05-27 07:16:00,
2013-05-27 00:21:00,54.0,49.3,29.98,West,262,2.0,4.0,84,0.00,OVC,,0.00,WeatherDisplay:10.37,2013-05-27 07:21:00,
2013-05-27 00:26:00,54.1,49.1,29.98,WSW,242,1.0,7.0,83,0.00,OVC,,0.00,WeatherDisplay:10.37,2013-05-27 07:26:00,
2013-05-27 00:31:00,54.1,49.0,29.97,SW,232,1.0,3.0,83,0.00,OVC,,0.00,WeatherDisplay:10.37,2013-05-27 07:31:00,
2013-05-27 00:36:00,54.0,49.0,29.98,SW,218,1.0,4.0,83,0.00,OVC,,0.00,WeatherDisplay:10.37,2013-05-27 07:36:00,
2013-05-27 00:41:00,54.0,49.0,29.98,South,190,1.0,3.0,83,0.00,OVC,,0.00,WeatherDisplay:10.37,2013-05-27 07:41:00,
2013-05-27 00:46:00,53.9,48.9,29.98,SSW,211,1.0,6.0,83,0.00,OVC,,0.00,WeatherDisplay:10.37,2013-05-27 07:46:00,
2013-05-27 00:51:00,53.9,48.9,29.97,SW,226,1.0,3.0,83,0.00,OVC,,0.00,WeatherDisplay:10.37,2013-05-27 07:51:00,
2013-05-27 00:56:00,53.9,48.9,29.97,SW,228,1.0,3.0,83,0.00,OVC,,0.00,WeatherDisplay:10.37,2013-05-27 07:56:00,
2013-05-27 01:01:00,53.8,49.1,29.97,SW,236,0.0,3.0,84,0.00,OVC,,0.00,WeatherDisplay:10.37,2013-05-27 08:01:00,
2013-05-27 01:11:00,53.7,49.0,29.97,SSW,196,0.0,2.0,84,0.00,OVC,,0.00,WeatherDisplay:10.37,2013-05-27 08:11:00,
2013-05-27 01:16:00,53.6,49.2,29.96,South,175,0.0,3.0,85,0.00,OVC,,0.00,WeatherDisplay:10.37,2013-05-27 08:16:00,
2013-05-27 01:21:00,53.6,49.2,29.97,South,169,1.0,4.0,85,0.00,OVC,,0.00,WeatherDisplay:10.37,2013-05-27 08:21:00,
2013-05-27 01:26:00,53.5,49.1,29.97,South,186,1.0,3.0,85,0.00,OVC,,0.00,WeatherDisplay:10.37,2013-05-27 08:26:00,
2013-05-27 01:31:00,53.5,49.1,29.96,SW,216,0.0,3.0,85,0.00,-RA,,0.00,WeatherDisplay:10.37,2013-05-27 08:31:00,
2013-05-27 01:36:00,53.4,49.3,29.96,South,186,0.0,2.0,86,0.00,-RA,,0.00,WeatherDisplay:10.37,2013-05-27 08:36:00,
2013-05-27 01:41:00,53.4,49.3,29.96,SE,136,0.0,2.0,86,0.00,-RA,,0.00,WeatherDisplay:10.37,2013-05-27 08:41:00,
2013-05-27 01:46:00,53.4,49.3,29.96,SE,141,0.0,2.0,86,0.00,-RA,,0.00,WeatherDisplay:10.37,2013-05-27 08:46:00,
2013-05-27 01:51:00,53.4,49.3,29.96,SE,145,0.0,1.0,86,0.00,-RA,,0.00,WeatherDisplay:10.37,2013-05-27 08:51:00,
2013-05-27 01:56:00,53.4,49.6,29.96,South,189,0.0,2.0,87,0.00,-RA,,0.00,WeatherDisplay:10.37,2013-05-27 08:56:00,
2013-05-27 02:01:00,53.4,49.6,29.96,SSW,204,0.0,2.0,87,0.00,OVC,,0.00,WeatherDisplay:10.37,2013-05-27 09:01:00,
2013-05-27 02:11:00,53.2,49.7,29.96,SW,214,0.0,4.0,88,0.00,OVC,,0.00,WeatherDisplay:10.37,2013-05-27 09:11:00,
2013-05-27 02:16:00,53.1,49.9,29.96,WSW,237,0.0,1.0,89,0.00,OVC,,0.00,WeatherDisplay:10.37,2013-05-27 09:16:00,
2013-05-27 02:21:00,52.9,49.7,29.95,South,184,0.0,2.0,89,0.00,OVC,,0.00,WeatherDisplay:10.37,2013-05-27 09:21:00,
2013-05-27 02:26:00,52.7,49.5,29.95,SSE,159,0.0,1.0,89,0.00,OVC,,0.00,WeatherDisplay:10.37,2013-05-27 09:26:00,
2013-05-27 02:31:00,52.6,49.7,29.95,SSE,159,0.0,0.0,90,0.00,OVC,,0.00,WeatherDisplay:10.37,2013-05-27 09:31:00,
2013-05-27 02:36:00,52.5,49.6,29.95,SSE,158,0.0,0.0,90,0.00,OVC,,0.00,WeatherDisplay:10.37,2013-05-27 09:36:00,
2013-05-27 02:41:00,52.3,49.5,29.95,SSE,158,0.0,0.0,90,0.00,OVC,,0.00,WeatherDisplay:10.37,2013-05-27 09:41:00,
2013-05-27 02:46:00,52.2,49.4,29.94,SSE,157,0.0,1.0,90,0.00,OVC,,0.00,WeatherDisplay:10.37,2013-05-27 09:46:00,
2013-05-27 02:51:00,52.1,49.3,29.94,SSE,154,0.0,0.0,90,0.00,OVC,,0.00,WeatherDisplay:10.37,2013-05-27 09:51:00,
2013-05-27 02:56:00,52.0,49.2,29.94,SSE,154,0.0,0.0,90,0.00,OVC,,0.00,WeatherDisplay:10.37,2013-05-27 09:56:00,
2013-05-27 03:01:00,52.0,49.1,29.94,SSE,152,0.0,1.0,90,0.00,BKN,,0.00,WeatherDisplay:10.37,2013-05-27 10:01:00,
2013-05-27 03:11:00,51.8,49.2,29.93,SSE,149,0.0,1.0,91,0.00,BKN,,0.00,WeatherDisplay:10.37,2013-05-27 10:11:00,
2013-05-27 03:16:00,51.7,49.2,29.93,SSE,149,0.0,0.0,91,0.00,BKN,,0.00,WeatherDisplay:10.37,2013-05-27 10:16:00,
2013-05-27 03:21:00,51.6,49.4,29.93,SSE,149,0.0,0.0,92,0.00,BKN,,0.00,WeatherDisplay:10.37,2013-05-27 10:21:00,
2013-05-27 03:26:00,51.5,49.3,29.93,SSE,149,0.0,1.0,92,0.00,BKN,,0.00,WeatherDisplay:10.37,2013-05-27 10:26:00,
2013-05-27 03:31:00,51.5,49.2,29.93,SSE,149,0.0,1.0,92,0.00,BKN,,0.00,WeatherDisplay:10.37,2013-05-27 10:31:00,
2013-05-27 03:36:00,51.3,49.3,29.92,SSE,149,0.0,0.0,93,0.00,BKN,,0.00,WeatherDisplay:10.37,2013-05-27 10:36:00,
2013-05-27 03:41:00,51.1,49.2,29.92,SSE,149,0.0,0.0,93,0.00,BKN,,0.00,WeatherDisplay:10.37,2013-05-27 10:41:00,
2013-05-27 03:46:00,51.0,49.0,29.92,SSE,149,0.0,0.0,93,0.00,BKN,,0.00,WeatherDisplay:10.37,2013-05-27 10:46:00,
2013-05-27 03:51:00,50.9,48.9,29.92,SSE,149,0.0,0.0,93,0.00,BKN,,0.00,WeatherDisplay:10.37,2013-05-27 10:51:00,
2013-05-27 03:56:00,50.7,48.7,29.91,SSE,149,0.0,0.0,93,0.00,BKN,,0.00,WeatherDisplay:10.37,2013-05-27 10:56:00,
2013-05-27 04:01:00,50.6,48.9,29.91,SSE,149,0.0,0.0,94,0.00,CLR,,0.00,WeatherDisplay:10.37,2013-05-27 11:01:00,
2013-05-27 04:11:00,50.3,48.6,29.90,SSE,149,0.0,0.0,94,0.00,CLR,,0.00,WeatherDisplay:10.37,2013-05-27 11:11:00,
2013-05-27 04:16:00,50.2,48.5,29.90,SSE,149,0.0,0.0,94,0.00,CLR,,0.00,WeatherDisplay:10.37,2013-05-27 11:16:00,
2013-05-27 04:21:00,50.1,48.4,29.90,SSE,149,0.0,0.0,94,0.00,CLR,,0.00,WeatherDisplay:10.37,2013-05-27 11:21:00,
2013-05-27 04:26:00,49.9,48.2,29.90,SSE,149,0.0,0.0,94,0.00,CLR,,0.00,WeatherDisplay:10.37,2013-05-27 11:26:00,
2013-05-27 04:31:00,49.8,48.4,29.90,SSE,149,0.0,0.0,95,0.00,CLR,,0.00,WeatherDisplay:10.37,2013-05-27 11:31:00,
2013-05-27 04:36:00,49.8,48.4,29.89,SSE,153,0.0,0.0,95,0.00,CLR,,0.00,WeatherDisplay:10.37,2013-05-27 11:36:00,
2013-05-27 04:41:00,49.8,48.4,29.89,SSE,156,0.0,0.0,95,0.00,CLR,,0.00,WeatherDisplay:10.37,2013-05-27 11:41:00,
2013-05-27 04:46:00,49.7,48.3,29.89,SSE,156,0.0,0.0,95,0.00,CLR,,0.00,WeatherDisplay:10.37,2013-05-27 11:46:00,
2013-05-27 04:51:00,49.6,48.2,29.89,SSE,156,0.0,0.0,95,0.00,CLR,,0.00,WeatherDisplay:10.37,2013-05-27 11:51:00,
2013-05-27 04:56:00,49.5,48.1,29.89,SSE,156,0.0,0.0,95,0.00,CLR,,0.00,WeatherDisplay:10.37,2013-05-27 11:56:00,
2013-05-27 05:01:00,49.3,47.9,29.88,SSE,156,0.0,0.0,95,0.00,CLR,,0.00,WeatherDisplay:10.37,2013-05-27 12:01:00,
2013-05-27 05:11:00,49.3,47.9,29.88,SSE,156,0.0,1.0,95,0.00,CLR,,0.00,WeatherDisplay:10.37,2013-05-27 12:11:00,
2013-05-27 05:16:00,49.3,47.9,29.87,SSE,155,0.0,0.0,95,0.00,CLR,,0.00,WeatherDisplay:10.37,2013-05-27 12:16:00,
2013-05-27 05:21:00,49.3,47.9,29.87,SSE,155,0.0,0.0,95,0.00,CLR,,0.00,WeatherDisplay:10.37,2013-05-27 12:21:00,
2013-05-27 05:26:00,49.3,47.9,29.87,SSE,155,0.0,0.0,95,0.00,CLR,,0.00,WeatherDisplay:10.37,2013-05-27 12:26:00,
2013-05-27 05:36:00,49.4,48.3,29.87,SSE,155,0.0,0.0,96,0.00,CLR,,0.00,WeatherDisplay:10.37,2013-05-27 12:36:00,
2013-05-27 05:41:00,49.3,48.3,29.86,SSE,155,0.0,0.0,96,0.00,CLR,,0.00,WeatherDisplay:10.37,2013-05-27 12:41:00,
2013-05-27 05:46:00,49.4,48.3,29.86,SSE,155,0.0,0.0,96,0.00,CLR,,0.00,WeatherDisplay:10.37,2013-05-27 12:46:00,
2013-05-27 05:51:00,49.5,48.4,29.86,SSE,155,0.0,0.0,96,0.00,CLR,,0.00,WeatherDisplay:10.37,2013-05-27 12:51:00,
2013-05-27 05:56:00,49.6,48.5,29.86,SSE,155,0.0,0.0,96,0.00,CLR,,0.00,WeatherDisplay:10.37,2013-05-27 12:56:00,
2013-05-27 06:01:00,49.6,48.5,29.86,SSE,155,0.0,0.0,96,0.00,CLR,,0.00,WeatherDisplay:10.37,2013-05-27 13:01:00,
2013-05-27 06:11:00,49.7,48.6,29.85,SSE,155,0.0,0.0,96,0.00,CLR,,0.00,WeatherDisplay:10.37,2013-05-27 13:11:00,
2013-05-27 06:16:00,49.7,48.6,29.85,SSE,155,0.0,1.0,96,0.00,CLR,,0.00,WeatherDisplay:10.37,2013-05-27 13:16:00,
2013-05-27 06:21:00,49.8,48.7,29.85,SSE,155,0.0,0.0,96,0.00,CLR,,0.00,WeatherDisplay:10.37,2013-05-27 13:21:00,
2013-05-27 06:26:00,49.9,48.8,29.85,SSE,149,0.0,1.0,96,0.00,CLR,,0.00,WeatherDisplay:10.37,2013-05-27 13:26:00,
2013-05-27 06:31:00,50.0,48.9,29.85,SE,144,0.0,1.0,96,0.00,CLR,,0.00,WeatherDisplay:10.37,2013-05-27 13:31:00,
2013-05-27 06:36:00,50.1,49.0,29.85,SSE,159,0.0,1.0,96,0.00,CLR,,0.00,WeatherDisplay:10.37,2013-05-27 13:36:00,
2013-05-27 06:41:00,50.1,49.0,29.85,SSE,148,0.0,1.0,96,0.00,CLR,,0.00,WeatherDisplay:10.37,2013-05-27 13:41:00,
2013-05-27 06:46:00,50.2,48.8,29.85,SSE,150,0.0,2.0,95,0.00,CLR,,0.00,WeatherDisplay:10.37,2013-05-27 13:46:00,
2013-05-27 06:51:00,50.2,48.8,29.84,SSE,159,0.0,1.0,95,0.00,CLR,,0.00,WeatherDisplay:10.37,2013-05-27 13:51:00,
2013-05-27 06:56:00,50.3,48.9,29.84,SE,144,0.0,1.0,95,0.00,CLR,,0.00,WeatherDisplay:10.37,2013-05-27 13:56:00,
2013-05-27 07:01:00,50.4,49.0,29.84,SE,145,0.0,1.0,95,0.00,BKN,,0.00,WeatherDisplay:10.37,2013-05-27 14:01:00,
2013-05-27 07:11:00,50.7,49.3,29.84,SE,144,0.0,1.0,95,0.00,BKN,,0.00,WeatherDisplay:10.37,2013-05-27 14:11:00,
2013-05-27 07:16:00,50.9,49.5,29.83,South,174,0.0,1.0,95,0.00,BKN,,0.00,WeatherDisplay:10.37,2013-05-27 14:16:00,
2013-05-27 07:21:00,51.2,49.8,29.83,SW,217,0.0,1.0,95,0.00,BKN,,0.00,WeatherDisplay:10.37,2013-05-27 14:21:00,
2013-05-27 07:26:00,51.6,50.2,29.83,WSW,240,0.0,1.0,95,0.00,BKN,,0.00,WeatherDisplay:10.37,2013-05-27 14:26:00,
2013-05-27 07:31:00,51.8,50.1,29.83,WSW,253,0.0,1.0,94,0.00,BKN,,0.00,WeatherDisplay:10.37,2013-05-27 14:31:00,
2013-05-27 07:36:00,51.8,49.9,29.83,ESE,102,0.0,1.0,93,0.00,BKN,,0.00,WeatherDisplay:10.37,2013-05-27 14:36:00,
2013-05-27 07:41:00,51.9,49.9,29.82,North,359,1.0,4.0,93,0.00,BKN,,0.00,WeatherDisplay:10.37,2013-05-27 14:41:00,
2013-05-27 07:46:00,51.9,49.9,29.82,NW,313,0.0,1.0,93,0.00,BKN,,0.00,WeatherDisplay:10.37,2013-05-27 14:46:00,
2013-05-27 07:51:00,52.1,49.8,29.82,WSW,238,0.0,2.0,92,0.00,BKN,,0.00,WeatherDisplay:10.37,2013-05-27 14:51:00,
2013-05-27 07:56:00,52.2,49.9,29.82,SSE,164,0.0,2.0,92,0.00,BKN,,0.00,WeatherDisplay:10.37,2013-05-27 14:56:00,
2013-05-27 08:01:00,52.3,50.0,29.81,SSE,167,0.0,1.0,92,0.00,BKN,,0.00,WeatherDisplay:10.37,2013-05-27 15:01:00,
2013-05-27 08:11:00,52.4,49.8,29.81,ESE,113,0.0,1.0,91,0.00,BKN,,0.00,WeatherDisplay:10.37,2013-05-27 15:11:00,
2013-05-27 08:16:00,52.5,49.9,29.81,ESE,117,0.0,2.0,91,0.00,OVC,,0.00,WeatherDisplay:10.37,2013-05-27 15:16:00,
2013-05-27 08:21:00,52.5,49.9,29.80,SE,144,0.0,3.0,91,0.00,OVC,,0.00,WeatherDisplay:10.37,2013-05-27 15:21:00,
2013-05-27 08:26:00,52.4,49.8,29.80,SSE,153,0.0,2.0,91,0.00,OVC,,0.00,WeatherDisplay:10.37,2013-05-27 15:26:00,
2013-05-27 08:31:00,52.4,49.8,29.80,West,267,0.0,2.0,91,0.00,OVC,,0.00,WeatherDisplay:10.37,2013-05-27 15:31:00,
2013-05-27 08:36:00,52.5,49.9,29.80,WNW,289,1.0,3.0,91,0.00,OVC,,0.00,WeatherDisplay:10.37,2013-05-27 15:36:00,
2013-05-27 08:41:00,52.5,49.9,29.80,South,173,1.0,2.0,91,0.00,OVC,,0.00,WeatherDisplay:10.37,2013-05-27 15:41:00,
2013-05-27 08:46:00,52.4,50.1,29.80,South,186,0.0,1.0,92,0.00,OVC,,0.00,WeatherDisplay:10.37,2013-05-27 15:46:00,
2013-05-27 08:51:00,52.5,50.2,29.79,SSE,164,0.0,1.0,92,0.00,OVC,,0.00,WeatherDisplay:10.37,2013-05-27 15:51:00,
2013-05-27 08:56:00,52.5,50.2,29.79,SE,139,1.0,1.0,92,0.00,OVC,,0.00,WeatherDisplay:10.37,2013-05-27 15:56:00,
2013-05-27 09:01:00,52.5,50.5,29.79,SE,136,0.0,1.0,93,0.00,-RA,,0.00,WeatherDisplay:10.37,2013-05-27 16:01:00,
2013-05-27 09:11:00,52.6,50.7,29.79,SE,124,0.0,1.0,93,0.00,-RA,,0.00,WeatherDisplay:10.37,2013-05-27 16:11:00,
2013-05-27 09:16:00,52.8,50.8,29.79,SE,125,0.0,1.0,93,0.00,-RA,,0.00,WeatherDisplay:10.37,2013-05-27 16:16:00,
2013-05-27 09:21:00,53.0,51.0,29.78,SE,127,0.0,1.0,93,0.00,-RA,,0.00,WeatherDisplay:10.37,2013-05-27 16:21:00,
2013-05-27 09:26:00,53.2,51.5,29.78,ESE,123,0.0,3.0,94,0.00,-RA,,0.00,WeatherDisplay:10.37,2013-05-27 16:26:00,
2013-05-27 09:31:00,53.3,51.3,29.78,SE,132,1.0,3.0,93,0.01,-RA,,0.01,WeatherDisplay:10.37,2013-05-27 16:31:00,
2013-05-27 09:36:00,53.5,51.5,29.78,SE,133,0.0,2.0,93,0.00,-RA,,0.01,WeatherDisplay:10.37,2013-05-27 16:36:00,
2013-05-27 09:41:00,53.7,51.8,29.77,ESE,118,1.0,3.0,93,0.00,-RA,,0.01,WeatherDisplay:10.37,2013-05-27 16:41:00,
2013-05-27 09:46:00,53.9,51.6,29.77,SE,124,0.0,2.0,92,0.00,-RA,,0.01,WeatherDisplay:10.37,2013-05-27 16:46:00,
2013-05-27 09:51:00,54.0,51.7,29.77,ESE,120,0.0,2.0,92,0.00,-RA,,0.01,WeatherDisplay:10.37,2013-05-27 16:51:00,
2013-05-27 09:56:00,54.3,52.4,29.77,ENE,60,0.0,1.0,93,0.00,-RA,,0.01,WeatherDisplay:10.37,2013-05-27 16:56:00,
2013-05-27 10:01:00,54.6,52.3,29.77,North,359,0.0,2.0,92,0.00,-RA,,0.01,WeatherDisplay:10.37,2013-05-27 17:01:00,
2013-05-27 10:11:00,54.5,51.6,29.76,SE,124,1.0,2.0,90,0.00,-RA,,0.01,WeatherDisplay:10.37,2013-05-27 17:11:00,
2013-05-27 10:16:00,54.6,52.0,29.76,SE,144,1.0,2.0,91,0.00,-RA,,0.01,WeatherDisplay:10.37,2013-05-27 17:16:00,
2013-05-27 10:21:00,54.8,52.5,29.76,East,97,0.0,1.0,92,0.01,-RA,,0.02,WeatherDisplay:10.37,2013-05-27 17:21:00,
2013-05-27 10:26:00,55.0,52.8,29.76,SSW,202,1.0,2.0,92,0.00,-RA,,0.02,WeatherDisplay:10.37,2013-05-27 17:26:00,
2013-05-27 10:31:00,55.3,53.0,29.76,East,98,0.0,3.0,92,0.00,-RA,,0.02,WeatherDisplay:10.37,2013-05-27 17:31:00,
2013-05-27 10:36:00,55.5,52.9,29.76,East,100,0.0,2.0,91,0.00,-RA,,0.02,WeatherDisplay:10.37,2013-05-27 17:36:00,
2013-05-27 10:41:00,55.8,53.2,29.75,SE,140,1.0,3.0,91,0.00,-RA,,0.02,WeatherDisplay:10.37,2013-05-27 17:41:00,
2013-05-27 10:46:00,55.9,53.0,29.75,East,82,0.0,2.0,90,0.00,-RA,,0.02,WeatherDisplay:10.37,2013-05-27 17:46:00,
2013-05-27 10:51:00,56.2,53.6,29.75,ESE,123,0.0,2.0,91,0.00,-RA,,0.02,WeatherDisplay:10.37,2013-05-27 17:51:00,
2013-05-27 10:56:00,56.4,53.5,29.75,SSE,151,0.0,1.0,90,0.01,-RA,,0.03,WeatherDisplay:10.37,2013-05-27 17:56:00,
2013-05-27 11:01:00,56.5,53.3,29.75,SE,139,0.0,4.0,89,0.00,-RA,,0.03,WeatherDisplay:10.37,2013-05-27 18:01:00,
2013-05-27 11:11:00,56.8,53.6,29.74,SE,142,2.0,4.0,89,0.00,-RA,,0.03,WeatherDisplay:10.37,2013-05-27 18:11:00,
2013-05-27 11:16:00,57.0,54.1,29.74,SE,146,1.0,3.0,90,0.00,-RA,,0.03,WeatherDisplay:10.37,2013-05-27 18:16:00,
2013-05-27 11:21:00,57.1,53.3,29.74,ESE,122,1.0,4.0,87,0.00,-RA,,0.03,WeatherDisplay:10.37,2013-05-27 18:21:00,
2013-05-27 11:26:00,57.2,53.7,29.74,ESE,103,1.0,2.0,88,0.00,-RA,,0.03,WeatherDisplay:10.37,2013-05-27 18:26:00,
2013-05-27 11:31:00,57.4,54.5,29.74,ESE,102,0.0,2.0,90,0.00,-RA,,0.03,WeatherDisplay:10.37,2013-05-27 18:31:00,
2013-05-27 11:36:00,57.6,54.1,29.74,SE,126,1.0,3.0,88,0.00,-RA,,0.03,WeatherDisplay:10.37,2013-05-27 18:36:00,
2013-05-27 11:41:00,57.9,54.4,29.74,SSE,147,0.0,2.0,88,0.00,-RA,,0.03,WeatherDisplay:10.37,2013-05-27 18:41:00,
2013-05-27 11:46:00,58.0,54.2,29.74,ESE,105,1.0,4.0,87,0.00,-RA,,0.03,WeatherDisplay:10.37,2013-05-27 18:46:00,
2013-05-27 11:51:00,58.0,53.8,29.74,ESE,107,1.0,6.0,86,0.00,-RA,,0.03,WeatherDisplay:10.37,2013-05-27 18:51:00,
2013-05-27 11:56:00,58.2,54.3,29.74,ESE,111,1.0,5.0,87,0.00,-RA,,0.03,WeatherDisplay:10.37,2013-05-27 18:56:00,
2013-05-27 12:01:00,58.3,54.5,29.74,ESE,121,1.0,4.0,87,0.00,-RA,,0.03,WeatherDisplay:10.37,2013-05-27 19:01:00,
2013-05-27 12:11:00,58.4,54.2,29.74,SSE,155,1.0,3.0,86,0.01,-RA,,0.04,WeatherDisplay:10.37,2013-05-27 19:11:00,
2013-05-27 12:16:00,58.3,54.1,29.74,SE,142,1.0,3.0,86,0.00,-RA,,0.04,WeatherDisplay:10.37,2013-05-27 19:16:00,
2013-05-27 12:21:00,58.3,54.4,29.74,SE,139,0.0,2.0,87,0.00,-RA,,0.04,WeatherDisplay:10.37,2013-05-27 19:21:00,
2013-05-27 12:26:00,58.3,54.1,29.73,SE,135,0.0,4.0,86,0.00,-RA,,0.04,WeatherDisplay:10.37,2013-05-27 19:26:00,
2013-05-27 12:31:00,58.4,54.5,29.73,SE,140,0.0,2.0,87,0.00,-RA,,0.04,WeatherDisplay:10.37,2013-05-27 19:31:00,
2013-05-27 12:36:00,58.3,54.1,29.73,SE,136,0.0,2.0,86,0.01,-RA,,0.05,WeatherDisplay:10.37,2013-05-27 19:36:00,
2013-05-27 12:41:00,58.3,53.9,29.74,SE,140,1.0,4.0,85,0.00,-RA,,0.05,WeatherDisplay:10.37,2013-05-27 19:41:00,
2013-05-27 12:51:00,58.8,55.3,29.73,West,272,0.0,2.0,88,0.00,-RA,,0.05,WeatherDisplay:10.37,2013-05-27 19:51:00,
2013-05-27 12:56:00,58.9,54.4,29.73,South,186,1.0,4.0,85,0.00,-RA,,0.05,WeatherDisplay:10.37,2013-05-27 19:56:00,
2013-05-27 13:01:00,59.2,55.7,29.73,SSE,156,0.0,1.0,88,0.00,-RA,,0.05,WeatherDisplay:10.37,2013-05-27 20:01:00,
2013-05-27 13:11:00,59.3,55.1,29.73,SSE,160,0.0,3.0,86,0.01,-RA,,0.06,WeatherDisplay:10.37,2013-05-27 20:11:00,
2013-05-27 13:16:00,59.0,54.1,29.73,ESE,104,2.0,5.0,84,0.00,-RA,,0.06,WeatherDisplay:10.37,2013-05-27 20:16:00,
2013-05-27 13:21:00,58.7,54.2,29.73,ESE,114,1.0,2.0,85,0.00,-RA,,0.06,WeatherDisplay:10.37,2013-05-27 20:21:00,
2013-05-27 13:26:00,58.5,54.3,29.73,SE,133,1.0,2.0,86,0.00,-RA,,0.06,WeatherDisplay:10.37,2013-05-27 20:26:00,
2013-05-27 13:31:00,58.4,54.5,29.73,SSE,154,1.0,2.0,87,0.01,-RA,,0.07,WeatherDisplay:10.37,2013-05-27 20:31:00,
2013-05-27 13:36:00,58.3,54.1,29.73,SSE,153,1.0,4.0,86,0.00,-RA,,0.07,WeatherDisplay:10.37,2013-05-27 20:36:00,
2013-05-27 13:41:00,58.2,54.3,29.73,SSE,166,1.0,3.0,87,0.01,-RA,,0.08,WeatherDisplay:10.37,2013-05-27 20:41:00,
2013-05-27 13:46:00,58.1,54.5,29.73,SSW,210,0.0,2.0,88,0.00,-RA,,0.08,WeatherDisplay:10.37,2013-05-27 20:46:00,
2013-05-27 13:51:00,58.0,54.8,29.73,SSE,152,0.0,2.0,89,0.00,-RA,,0.08,WeatherDisplay:10.37,2013-05-27 20:51:00,
2013-05-27 13:56:00,57.9,54.7,29.73,SE,129,0.0,1.0,89,0.01,-RA,,0.09,WeatherDisplay:10.37,2013-05-27 20:56:00,
2013-05-27 14:01:00,57.7,53.9,29.73,SE,142,0.0,3.0,87,0.00,-RA,,0.09,WeatherDisplay:10.37,2013-05-27 21:01:00,
2013-05-27 14:11:00,57.4,54.2,29.73,SSE,151,1.0,3.0,89,0.00,-RA,,0.10,WeatherDisplay:10.37,2013-05-27 21:11:00,
2013-05-27 14:16:00,57.3,54.4,29.73,SE,131,1.0,4.0,90,0.01,-RA,,0.11,WeatherDisplay:10.37,2013-05-27 21:16:00,
2013-05-27 14:21:00,57.2,54.0,29.73,ESE,103,1.0,3.0,89,0.00,-RA,,0.11,WeatherDisplay:10.37,2013-05-27 21:21:00,
2013-05-27 14:26:00,57.1,54.2,29.73,East,100,1.0,3.0,90,0.00,-RA,,0.11,WeatherDisplay:10.37,2013-05-27 21:26:00,
2013-05-27 14:31:00,57.0,54.1,29.73,SE,131,0.0,2.0,90,0.00,-RA,,0.11,WeatherDisplay:10.37,2013-05-27 21:31:00,
2013-05-27 14:36:00,56.9,53.7,29.73,ESE,121,1.0,3.0,89,0.00,-RA,,0.11,WeatherDisplay:10.37,2013-05-27 21:36:00,
2013-05-27 14:41:00,57.0,54.1,29.73,SE,125,1.0,5.0,90,0.01,-RA,,0.12,WeatherDisplay:10.37,2013-05-27 21:41:00,
2013-05-27 14:46:00,56.9,54.0,29.73,SSE,149,1.0,3.0,90,0.00,-RA,,0.12,WeatherDisplay:10.37,2013-05-27 21:46:00,
2013-05-27 14:51:00,56.9,54.3,29.73,SSE,165,0.0,1.0,91,0.00,-RA,,0.12,WeatherDisplay:10.37,2013-05-27 21:51:00,
2013-05-27 14:56:00,57.0,54.4,29.73,SE,138,0.0,2.0,91,0.00,-RA,,0.12,WeatherDisplay:10.37,2013-05-27 21:56:00,
2013-05-27 15:01:00,57.0,54.4,29.73,SE,142,0.0,2.0,91,0.01,RA,,0.13,WeatherDisplay:10.37,2013-05-27 22:01:00,
2013-05-27 15:11:00,57.2,54.6,29.73,ESE,119,0.0,1.0,91,0.00,OVC,,0.13,WeatherDisplay:10.37,2013-05-27 22:11:00,
2013-05-27 15:16:00,57.2,54.3,29.74,East,97,0.0,1.0,90,0.00,OVC,,0.13,WeatherDisplay:10.37,2013-05-27 22:16:00,
2013-05-27 15:21:00,57.4,54.5,29.74,ESE,108,0.0,1.0,90,0.00,OVC,,0.13,WeatherDisplay:10.37,2013-05-27 22:21:00,
2013-05-27 15:26:00,57.4,53.8,29.74,SE,140,1.0,4.0,88,0.00,OVC,,0.13,WeatherDisplay:10.37,2013-05-27 22:26:00,
2013-05-27 15:31:00,57.5,54.6,29.74,SSE,147,0.0,2.0,90,0.00,OVC,,0.13,WeatherDisplay:10.37,2013-05-27 22:31:00,
2013-05-27 15:36:00,57.5,54.6,29.74,SSE,147,0.0,1.0,90,0.00,OVC,,0.13,WeatherDisplay:10.37,2013-05-27 22:36:00,
2013-05-27 15:41:00,57.4,54.8,29.74,SE,141,0.0,1.0,91,0.00,OVC,,0.13,WeatherDisplay:10.37,2013-05-27 22:41:00,
2013-05-27 15:46:00,57.3,54.7,29.74,SE,139,0.0,1.0,91,0.00,OVC,,0.13,WeatherDisplay:10.37,2013-05-27 22:46:00,
2013-05-27 15:56:00,57.3,55.0,29.74,SE,136,0.0,2.0,92,0.00,RA,,0.14,WeatherDisplay:10.37,2013-05-27 22:56:00,
2013-05-27 16:01:00,57.5,55.2,29.74,SE,134,0.0,1.0,92,0.00,-RA,,0.14,WeatherDisplay:10.37,2013-05-27 23:01:00,
2013-05-27 16:11:00,57.4,54.8,29.74,East,94,0.0,1.0,91,0.00,-RA,,0.14,WeatherDisplay:10.37,2013-05-27 23:11:00,
2013-05-27 16:16:00,57.3,55.0,29.74,ESE,114,0.0,1.0,92,0.00,-RA,,0.14,WeatherDisplay:10.37,2013-05-27 23:16:00,
2013-05-27 16:21:00,57.3,54.7,29.74,ENE,74,0.0,2.0,91,0.00,-RA,,0.14,WeatherDisplay:10.37,2013-05-27 23:21:00,
2013-05-27 16:26:00,57.4,55.4,29.73,NNW,347,0.0,1.0,93,0.00,-RA,,0.14,WeatherDisplay:10.37,2013-05-27 23:26:00,
2013-05-27 16:31:00,57.6,55.6,29.73,North,354,0.0,1.0,93,0.00,-RA,,0.14,WeatherDisplay:10.37,2013-05-27 23:31:00,
2013-05-27 16:36:00,57.5,55.2,29.73,South,190,0.0,2.0,92,0.00,-RA,,0.14,WeatherDisplay:10.37,2013-05-27 23:36:00,
2013-05-27 16:41:00,57.4,54.5,29.73,SSW,198,0.0,1.0,90,0.00,-RA,,0.14,WeatherDisplay:10.37,2013-05-27 23:41:00,
2013-05-27 16:46:00,57.4,54.5,29.73,SSE,162,1.0,1.0,90,0.00,-RA,,0.14,WeatherDisplay:10.37,2013-05-27 23:46:00,
2013-05-27 16:51:00,57.5,54.6,29.73,SE,139,0.0,3.0,90,0.00,-RA,,0.14,WeatherDisplay:10.37,2013-05-27 23:51:00,
2013-05-27 16:56:00,57.8,55.2,29.73,SSE,151,1.0,2.0,91,0.00,-RA,,0.14,WeatherDisplay:10.37,2013-05-27 23:56:00,
2013-05-27 17:01:00,57.9,55.0,29.73,SE,144,1.0,3.0,90,0.00,-RA,,0.14,WeatherDisplay:10.37,2013-05-28 00:01:00,
2013-05-27 17:11:00,58.4,55.5,29.73,SSE,159,0.0,2.0,90,0.00,-RA,,0.14,WeatherDisplay:10.37,2013-05-28 00:11:00,
2013-05-27 17:16:00,58.6,55.1,29.73,SSW,202,0.0,4.0,88,0.00,-RA,,0.14,WeatherDisplay:10.37,2013-05-28 00:16:00,
2013-05-27 17:21:00,58.9,55.6,29.73,SW,229,0.0,2.0,89,0.00,-RA,,0.14,WeatherDisplay:10.37,2013-05-28 00:21:00,
2013-05-27 17:26:00,58.9,55.1,29.73,South,190,2.0,6.0,87,0.00,-RA,,0.14,WeatherDisplay:10.37,2013-05-28 00:26:00,
2013-05-27 17:31:00,58.6,55.1,29.73,SSE,151,1.0,6.0,88,0.00,-RA,,0.14,WeatherDisplay:10.37,2013-05-28 00:31:00,
2013-05-27 17:36:00,58.2,55.0,29.73,ESE,121,1.0,5.0,89,0.00,-RA,,0.14,WeatherDisplay:10.37,2013-05-28 00:36:00,
2013-05-27 17:41:00,58.0,54.7,29.73,SE,134,0.0,4.0,89,0.00,-RA,,0.14,WeatherDisplay:10.37,2013-05-28 00:41:00,
2013-05-27 17:46:00,57.6,54.4,29.72,SSE,165,0.0,3.0,89,0.00,-RA,,0.14,WeatherDisplay:10.37,2013-05-28 00:46:00,
2013-05-27 17:51:00,57.6,55.0,29.72,SSE,147,0.0,2.0,91,0.00,-RA,,0.14,WeatherDisplay:10.37,2013-05-28 00:51:00,
2013-05-27 17:56:00,57.8,55.2,29.72,SSE,152,0.0,0.0,91,0.00,-RA,,0.14,WeatherDisplay:10.37,2013-05-28 00:56:00,
2013-05-27 18:01:00,57.8,55.2,29.73,SSE,147,0.0,2.0,91,0.00,-RA,,0.14,WeatherDisplay:10.37,2013-05-28 01:01:00,
2013-05-27 18:11:00,58.0,55.1,29.73,SSE,160,0.0,1.0,90,0.00,-RA,,0.14,WeatherDisplay:10.37,2013-05-28 01:11:00,
2013-05-27 18:16:00,58.0,55.1,29.73,SSW,207,0.0,1.0,90,0.00,-RA,,0.14,WeatherDisplay:10.37,2013-05-28 01:16:00,
2013-05-27 18:21:00,58.2,55.6,29.73,SW,222,0.0,1.0,91,0.01,-RA,,0.15,WeatherDisplay:10.37,2013-05-28 01:21:00,
2013-05-27 18:26:00,57.9,54.4,29.73,ESE,116,0.0,2.0,88,0.00,-RA,,0.15,WeatherDisplay:10.37,2013-05-28 01:26:00,
2013-05-27 18:31:00,57.9,55.0,29.73,SE,125,0.0,1.0,90,0.00,-RA,,0.15,WeatherDisplay:10.37,2013-05-28 01:31:00,
2013-05-27 18:36:00,57.9,55.3,29.73,SE,141,1.0,2.0,91,0.00,-RA,,0.15,WeatherDisplay:10.37,2013-05-28 01:36:00,
2013-05-27 18:41:00,57.8,55.2,29.73,SE,139,0.0,1.0,91,0.00,-RA,,0.15,WeatherDisplay:10.37,2013-05-28 01:41:00,
2013-05-27 18:46:00,57.7,55.1,29.73,SSE,147,0.0,1.0,91,0.00,-RA,,0.15,WeatherDisplay:10.37,2013-05-28 01:46:00,
2013-05-27 18:51:00,57.7,54.8,29.73,South,185,0.0,1.0,90,0.00,-RA,,0.15,WeatherDisplay:10.37,2013-05-28 01:51:00,
2013-05-27 18:56:00,57.6,55.0,29.73,SW,215,0.0,1.0,91,0.01,-RA,,0.16,WeatherDisplay:10.37,2013-05-28 01:56:00,
2013-05-27 19:01:00,57.4,54.8,29.73,WSW,241,1.0,2.0,91,0.00,-RA,,0.16,WeatherDisplay:10.37,2013-05-28 02:01:00,
2013-05-27 19:11:00,56.9,54.9,29.74,SW,231,0.0,2.0,93,0.00,-RA,,0.16,WeatherDisplay:10.37,2013-05-28 02:11:00,
2013-05-27 19:16:00,56.5,54.5,29.74,WSW,243,0.0,3.0,93,0.00,OVC,,0.16,WeatherDisplay:10.37,2013-05-28 02:16:00,
2013-05-27 19:21:00,56.4,54.4,29.74,WSW,241,0.0,1.0,93,0.00,OVC,,0.16,WeatherDisplay:10.37,2013-05-28 02:21:00,
2013-05-27 19:26:00,56.2,54.5,29.74,South,183,0.0,1.0,94,0.00,OVC,,0.16,WeatherDisplay:10.37,2013-05-28 02:26:00,
2013-05-27 19:31:00,56.1,54.4,29.75,ESE,120,0.0,1.0,94,0.00,-RA,,0.16,WeatherDisplay:10.37,2013-05-28 02:31:00,
2013-05-27 19:36:00,56.0,54.3,29.75,SE,124,1.0,1.0,94,0.01,-RA,,0.17,WeatherDisplay:10.37,2013-05-28 02:36:00,
2013-05-27 19:41:00,55.8,54.1,29.75,SE,126,0.0,4.0,94,0.00,-RA,,0.17,WeatherDisplay:10.37,2013-05-28 02:41:00,
2013-05-27 19:46:00,55.8,54.1,29.75,South,171,0.0,4.0,94,0.00,-RA,,0.17,WeatherDisplay:10.37,2013-05-28 02:46:00,
2013-05-27 19:51:00,55.7,54.0,29.75,SSE,156,1.0,4.0,94,0.00,-RA,,0.17,WeatherDisplay:10.37,2013-05-28 02:51:00,
2013-05-27 19:56:00,55.6,53.9,29.75,SSE,151,1.0,3.0,94,0.00,-RA,,0.17,WeatherDisplay:10.37,2013-05-28 02:56:00,
2013-05-27 20:01:00,55.5,53.8,29.75,SSE,148,2.0,4.0,94,0.00,OVC,,0.17,WeatherDisplay:10.37,2013-05-28 03:01:00,
2013-05-27 20:11:00,55.3,53.6,29.75,SSE,147,0.0,3.0,94,0.00,OVC,,0.17,WeatherDisplay:10.37,2013-05-28 03:11:00,
2013-05-27 20:16:00,55.3,53.6,29.75,SSE,164,0.0,3.0,94,0.00,OVC,,0.17,WeatherDisplay:10.37,2013-05-28 03:16:00,
2013-05-27 20:21:00,55.2,53.5,29.75,SSE,158,2.0,4.0,94,0.00,OVC,,0.17,WeatherDisplay:10.37,2013-05-28 03:21:00,
2013-05-27 20:26:00,55.2,53.8,29.75,SSE,152,1.0,2.0,95,0.00,OVC,,0.17,WeatherDisplay:10.37,2013-05-28 03:26:00,
2013-05-27 20:31:00,55.2,53.8,29.75,SSE,148,0.0,3.0,95,0.00,OVC,,0.17,WeatherDisplay:10.37,2013-05-28 03:31:00,
2013-05-27 20:36:00,55.2,53.8,29.75,SSE,150,1.0,3.0,95,0.00,OVC,,0.17,WeatherDisplay:10.37,2013-05-28 03:36:00,
2013-05-27 20:41:00,55.1,53.7,29.75,SSE,148,2.0,5.0,95,0.00,OVC,,0.17,WeatherDisplay:10.37,2013-05-28 03:41:00,
2013-05-27 20:46:00,55.1,53.7,29.75,SSE,157,1.0,3.0,95,0.00,OVC,,0.17,WeatherDisplay:10.37,2013-05-28 03:46:00,
2013-05-27 20:51:00,55.1,53.7,29.75,SSE,155,0.0,2.0,95,0.00,OVC,,0.17,WeatherDisplay:10.37,2013-05-28 03:51:00,
2013-05-27 20:56:00,55.0,53.6,29.75,SE,143,1.0,4.0,95,0.00,OVC,,0.17,WeatherDisplay:10.37,2013-05-28 03:56:00,
2013-05-27 21:01:00,55.0,53.6,29.75,SSE,162,1.0,3.0,95,0.00,OVC,,0.17,WeatherDisplay:10.37,2013-05-28 04:01:00,
2013-05-27 21:06:00,55.0,53.6,29.76,SSE,148,0.0,3.0,95,0.00,OVC,,0.17,WeatherDisplay:10.37,2013-05-28 04:06:00,
2013-05-27 21:11:00,55.0,53.6,29.76,SSE,155,1.0,2.0,95,0.00,OVC,,0.17,WeatherDisplay:10.37,2013-05-28 04:11:00,
2013-05-27 21:16:00,54.9,53.5,29.76,SSE,161,0.0,2.0,95,0.00,OVC,,0.17,WeatherDisplay:10.37,2013-05-28 04:16:00,
2013-05-27 21:21:00,54.9,53.8,29.76,SSE,158,1.0,2.0,96,0.00,OVC,,0.17,WeatherDisplay:10.37,2013-05-28 04:21:00,
2013-05-27 21:26:00,54.9,53.8,29.76,SSE,157,0.0,1.0,96,0.00,OVC,,0.17,WeatherDisplay:10.37,2013-05-28 04:26:00,
2013-05-27 21:31:00,54.9,53.8,29.76,SE,143,1.0,2.0,96,0.00,OVC,,0.17,WeatherDisplay:10.37,2013-05-28 04:31:00,
2013-05-27 21:36:00,54.7,53.3,29.76,SSE,167,2.0,5.0,95,0.00,OVC,,0.17,WeatherDisplay:10.37,2013-05-28 04:36:00,
2013-05-27 21:41:00,54.7,53.3,29.76,SSE,153,1.0,4.0,95,0.00,OVC,,0.17,WeatherDisplay:10.37,2013-05-28 04:41:00,
2013-05-27 21:46:00,54.7,53.3,29.77,SSE,167,0.0,4.0,95,0.00,OVC,,0.17,WeatherDisplay:10.37,2013-05-28 04:46:00,
2013-05-27 21:51:00,54.6,52.9,29.77,SSW,203,0.0,5.0,94,0.00,OVC,,0.17,WeatherDisplay:10.37,2013-05-28 04:51:00,
2013-05-27 21:56:00,54.6,52.6,29.77,SSW,197,1.0,5.0,93,0.00,OVC,,0.17,WeatherDisplay:10.37,2013-05-28 04:56:00,
2013-05-27 22:01:00,54.7,52.7,29.77,South,180,0.0,5.0,93,0.00,OVC,,0.17,WeatherDisplay:10.37,2013-05-28 05:01:00,
2013-05-27 22:11:00,54.9,52.6,29.78,SE,129,1.0,2.0,92,0.00,OVC,,0.17,WeatherDisplay:10.37,2013-05-28 05:11:00,
2013-05-27 22:16:00,54.9,52.6,29.78,SE,143,0.0,4.0,92,0.00,OVC,,0.17,WeatherDisplay:10.37,2013-05-28 05:16:00,
2013-05-27 22:21:00,54.9,52.6,29.78,South,184,0.0,1.0,92,0.00,OVC,,0.17,WeatherDisplay:10.37,2013-05-28 05:21:00,
2013-05-27 22:26:00,54.9,52.9,29.78,South,175,1.0,2.0,93,0.00,OVC,,0.17,WeatherDisplay:10.37,2013-05-28 05:26:00,
2013-05-27 22:31:00,54.8,52.9,29.78,SSE,155,1.0,2.0,93,0.00,OVC,,0.17,WeatherDisplay:10.37,2013-05-28 05:31:00,
2013-05-27 22:36:00,54.8,52.8,29.78,SSE,154,0.0,1.0,93,0.00,OVC,,0.17,WeatherDisplay:10.37,2013-05-28 05:36:00,
2013-05-27 22:41:00,54.8,52.8,29.78,SE,144,1.0,3.0,93,0.00,OVC,,0.17,WeatherDisplay:10.37,2013-05-28 05:41:00,
2013-05-27 22:46:00,54.7,52.7,29.78,SE,144,1.0,1.0,93,0.00,OVC,,0.17,WeatherDisplay:10.37,2013-05-28 05:46:00,
2013-05-27 22:51:00,54.7,52.7,29.78,SE,145,0.0,2.0,93,0.00,OVC,,0.17,WeatherDisplay:10.37,2013-05-28 05:51:00,
2013-05-27 22:56:00,54.7,52.7,29.78,SSE,154,1.0,3.0,93,0.00,OVC,,0.17,WeatherDisplay:10.37,2013-05-28 05:56:00,
2013-05-27 23:01:00,54.7,52.7,29.78,South,175,0.0,2.0,93,0.00,OVC,,0.17,WeatherDisplay:10.37,2013-05-28 06:01:00,
2013-05-27 23:11:00,54.6,52.3,29.78,SSW,193,0.0,3.0,92,0.00,OVC,,0.17,WeatherDisplay:10.37,2013-05-28 06:11:00,
2013-05-27 23:16:00,54.6,52.0,29.78,SSW,204,0.0,3.0,91,0.00,OVC,,0.17,WeatherDisplay:10.37,2013-05-28 06:16:00,
2013-05-27 23:21:00,54.5,51.9,29.78,SSW,198,0.0,4.0,91,0.00,OVC,,0.17,WeatherDisplay:10.37,2013-05-28 06:21:00,
2013-05-27 23:26:00,54.5,51.9,29.78,SSW,197,0.0,4.0,91,0.00,OVC,,0.17,WeatherDisplay:10.37,2013-05-28 06:26:00,
2013-05-27 23:31:00,54.4,51.9,29.78,SW,214,1.0,4.0,91,0.00,OVC,,0.17,WeatherDisplay:10.37,2013-05-28 06:31:00,
2013-05-27 23:36:00,54.4,51.5,29.78,SW,228,2.0,6.0,90,0.00,OVC,,0.17,WeatherDisplay:10.37,2013-05-28 06:36:00,
2013-05-27 23:41:00,54.5,51.6,29.79,WSW,247,1.0,6.0,90,0.00,OVC,,0.17,WeatherDisplay:10.37,2013-05-28 06:41:00,
2013-05-27 23:46:00,54.5,51.6,29.79,WSW,243,1.0,4.0,90,0.00,OVC,,0.17,WeatherDisplay:10.37,2013-05-28 06:46:00,
2013-05-27 23:51:00,54.5,51.6,29.79,SW,224,0.0,6.0,90,0.00,OVC,,0.17,WeatherDisplay:10.37,2013-05-28 06:51:00,
2013-05-27 23:56:00,54.5,51.6,29.79,SW,223,0.0,2.0,90,0.00,OVC,,0.17,WeatherDisplay:10.37,2013-05-28 06:56:00,